N2KI-13 Weather Reports


Display with metric or nautical units.
time (UTC)temp
F
wind
direction
speed
MPH
gust
MPH
rain 1hr
in
rain 24hr
in
rain mn
in
humidity
%
barometer
mb
20260504110505 40 265 0.0 0.0 0.00 0.00 0.00 87 1012.5
20260504100504 38 265 0.0 0.0 0.00 0.00 0.00 86 1012.5
20260504081503 37 265 0.0 0.0 0.00 0.00 0.00 87 1012.4
20260504081005 37 265 0.0 0.0 0.00 0.00 0.00 87 1012.3
20260504050504 40 265 0.0 0.0 0.00 0.00 0.00 82 1012.0
20260504050004 40 265 0.0 0.0 0.00 0.00 0.00 82 1012.0
20260504045504 40 265 0.0 0.0 0.00 0.00 0.00 82 1012.0
20260504045004 40 265 0.0 0.0 0.00 0.00 0.00 82 1011.8
20260504044504 40 265 0.0 0.0 0.00 0.00 0.00 82 1011.6
20260504044004 40 265 0.0 0.0 0.00 0.00 0.00 82 1011.5
20260504043004 40 265 0.0 0.0 0.00 0.00 0.00 81 1011.5
20260504042504 40 265 0.0 0.0 0.00 0.00 0.00 81 1011.5
20260504042004 41 265 0.0 0.0 0.00 0.00 0.00 81 1011.5
20260504041504 41 265 0.0 0.0 0.00 0.00 0.00 80 1011.4
20260504041004 41 265 0.0 0.0 0.00 0.00 0.00 79 1011.4
20260504040504 41 265 0.0 0.0 0.00 0.00 0.00 79 1011.3
20260504040004 41 265 0.0 0.0 0.00 0.00 0.00 78 1011.3
20260504035504 41 265 0.0 0.0 0.00 0.00 0.00 77 1011.4
20260504035004 41 265 0.0 0.0 0.00 0.00 0.00 77 1011.3
20260504034504 41 265 0.0 0.0 0.00 0.00 0.00 76 1011.3
20260504033504 42 265 0.0 0.0 0.00 0.00 0.00 75 1011.3
20260504032503 42 265 0.0 0.0 0.00 0.00 0.00 76 1011.3
20260504032004 42 265 0.0 0.0 0.00 0.00 0.00 76 1011.4
20260504031004 43 265 0.0 0.0 0.00 0.00 0.00 74 1011.3
20260504030004 43 265 0.0 0.0 0.00 0.00 0.00 73 1011.3
20260504025504 43 265 0.0 0.0 0.00 0.00 0.00 72 1011.4
20260504025004 43 265 0.0 0.0 0.00 0.00 0.00 73 1011.4
20260504024504 44 265 0.0 0.0 0.00 0.00 0.00 74 1011.4
20260504024005 44 265 0.0 0.0 0.00 0.00 0.00 72 1011.4
20260504023004 44 265 0.0 0.0 0.00 0.00 0.00 72 1011.4
20260504022004 45 265 0.0 0.0 0.00 0.00 0.00 68 1011.4
20260504021504 45 265 0.0 0.0 0.00 0.00 0.00 68 1011.4
20260504015504 47 265 0.0 0.0 0.00 0.00 0.00 66 1011.4
20260504015005 47 265 0.0 0.0 0.00 0.00 0.00 65 1011.4
20260504014504 48 265 0.0 0.0 0.00 0.00 0.00 63 1011.3
20260504014003 49 265 0.0 0.0 0.00 0.00 0.00 62 1011.3
20260504013504 49 265 0.0 0.0 0.00 0.00 0.00 58 1011.3
20260504013004 50 265 0.0 0.0 0.00 0.00 0.00 59 1011.2
20260504011004 51 265 0.0 0.0 0.00 0.00 0.00 51 1011.3
20260504010505 52 265 0.0 0.0 0.00 0.00 0.00 52 1011.1
20260504005504 53 265 0.0 0.0 0.00 0.00 0.00 50 1011.0
20260504005004 53 265 0.0 0.0 0.00 0.00 0.00 47 1010.9
20260504004004 54 265 0.0 3.0 0.00 0.00 0.00 46 1010.9
20260504002504 55 265 1.0 2.0 0.00 0.00 0.00 42 1010.7
20260504001504 56 265 0.0 2.0 0.00 0.00 0.00 40 1010.6
20260504001004 57 265 0.0 3.0 0.00 0.00 0.00 41 1010.5
20260504000503 57 266 1.0 5.0 0.00 0.00 0.00 39 1010.4
20260504000004 57 272 0.0 3.0 0.00 0.00 0.00 38 1010.5
20260503235503 57 272 2.0 5.0 0.00 0.00 0.00 38 1010.4
20260503235005 57 273 1.0 5.0 0.00 0.00 0.00 37 1010.2
20260503234004 58 273 2.0 6.0 0.00 0.00 0.00 38 1010.1
20260503233504 58 276 1.0 5.0 0.00 0.00 0.00 38 1010.0
20260503233004 58 281 2.0 5.0 0.00 0.00 0.00 38 1010.0
20260503232503 58 282 1.0 3.0 0.00 0.00 0.00 37 1010.0
20260503231504 58 343 1.0 3.0 0.00 0.00 0.00 37 1009.8
20260503231004 58 281 1.0 2.0 0.00 0.00 0.00 36 1009.8
20260503230504 58 280 1.0 6.0 0.00 0.00 0.00 36 1009.8
20260503230004 58 313 2.0 7.0 0.00 0.00 0.00 35 1009.8
20260503225503 58 328 3.0 7.0 0.00 0.00 0.00 34 1009.7
20260503225004 58 276 3.0 6.0 0.00 0.00 0.00 34 1009.7
20260503224004 59 251 3.0 9.0 0.00 0.00 0.00 33 1009.6
20260503223504 59 236 2.0 6.0 0.00 0.00 0.00 34 1009.7
20260503223004 59 287 2.0 7.0 0.00 0.00 0.00 32 1009.6
20260503222503 59 294 5.0 8.0 0.00 0.00 0.00 32 1009.6
20260503220503 59 287 6.0 12.0 0.00 0.00 0.00 32 1009.4
20260503220004 59 273 4.0 8.0 0.00 0.00 0.00 32 1009.5
20260503215504 58 251 1.0 3.0 0.00 0.00 0.00 34 1009.5
20260503215005 59 250 0.0 6.0 0.00 0.00 0.00 34 1009.4
20260503214504 59 277 1.0 5.0 0.00 0.00 0.00 33 1009.4
20260503213504 60 306 2.0 8.0 0.00 0.00 0.00 31 1009.4
20260503213004 60 351 2.0 7.0 0.00 0.00 0.00 30 1009.3
20260503212504 59 5 3.0 7.0 0.00 0.00 0.00 30 1009.4
20260503212004 59 288 3.0 10.0 0.00 0.00 0.00 30 1009.5
20260503211504 59 310 5.0 9.0 0.00 0.00 0.00 29 1009.4
20260503211003 59 347 5.0 10.0 0.00 0.00 0.00 29 1009.3
20260503210504 59 2 4.0 8.0 0.00 0.00 0.00 29 1009.4
20260503205504 58 240 3.0 9.0 0.00 0.00 0.00 31 1009.4
20260503205004 58 296 5.0 15.0 0.00 0.00 0.00 30 1009.5
20260503203004 58 343 4.0 9.0 0.00 0.00 0.00 32 1009.6
20260503202504 58 265 5.0 9.0 0.00 0.00 0.00 33 1009.6
20260503202004 58 329 2.0 8.0 0.00 0.00 0.00 33 1009.6
20260503201503 57 309 5.0 15.0 0.00 0.00 0.00 32 1009.6
20260503201004 57 318 5.0 14.0 0.00 0.00 0.00 33 1009.6
20260503200503 57 272 3.0 9.0 0.00 0.00 0.00 33 1009.7
20260503200004 57 318 5.0 12.0 0.00 0.00 0.00 32 1009.6
20260503195503 57 348 2.0 8.0 0.00 0.00 0.00 33 1009.7
20260503195005 58 326 3.0 12.0 0.00 0.00 0.00 34 1009.8
20260503194504 58 320 5.0 10.0 0.00 0.00 0.00 32 1009.7
20260503194004 58 297 5.0 12.0 0.00 0.00 0.00 34 1009.7
20260503193004 58 268 3.0 10.0 0.00 0.00 0.00 34 1010.0
20260503192504 58 352 5.0 12.0 0.00 0.00 0.00 36 1010.1
20260503192004 57 324 3.0 9.0 0.00 0.00 0.00 35 1010.1
20260503191503 57 54 2.0 6.0 0.00 0.00 0.00 36 1010.1
20260503191004 56 318 2.0 10.0 0.00 0.00 0.00 37 1010.2
20260503190003 56 333 6.0 15.0 0.00 0.00 0.00 37 1010.3
20260503185504 56 281 5.0 12.0 0.00 0.00 0.00 37 1010.2
20260503185004 56 263 5.0 14.0 0.00 0.00 0.00 39 1010.4
20260503184504 55 300 5.0 12.0 0.00 0.00 0.00 38 1010.4
20260503184003 55 260 3.0 10.0 0.00 0.00 0.00 38 1010.4
20260503183504 55 284 3.0 7.0 0.00 0.00 0.00 38 1010.4
20260503183003 55 314 3.0 10.0 0.00 0.00 0.00 37 1010.4
20260503182505 55 310 2.0 12.0 0.00 0.00 0.00 39 1010.6
20260503182004 55 3 5.0 12.0 0.00 0.00 0.00 37 1010.5
20260503181504 55 29 3.0 15.0 0.00 0.00 0.00 39 1010.5
20260503181004 54 290 3.0 7.0 0.00 0.00 0.00 40 1010.5
20260503180004 54 292 5.0 9.0 0.00 0.00 0.00 38 1010.7
20260503175503 54 327 5.0 9.0 0.00 0.00 0.00 40 1010.8
20260503175004 53 269 4.0 8.0 0.00 0.00 0.00 39 1010.8
20260503174004 53 342 4.0 12.0 0.00 0.00 0.00 43 1011.0
20260503173504 52 262 2.0 8.0 0.00 0.00 0.00 42 1011.0
20260503173004 52 276 3.0 8.0 0.00 0.00 0.00 44 1011.0
20260503172504 51 272 3.0 7.0 0.00 0.00 0.00 46 1011.1
20260503172004 51 0 4.0 10.0 0.00 0.00 0.00 43 1011.1
20260503171004 50 310 6.0 12.0 0.00 0.00 0.00 43 1011.3
20260503170504 50 344 4.0 12.0 0.00 0.00 0.00 45 1011.2
20260503151004 50 350 3.0 9.0 0.00 0.00 0.00 41 1011.5
20260503150504 50 293 6.0 13.0 0.00 0.00 0.00 39 1011.4
20260503131004 46 305 3.0 6.0 0.00 0.00 0.00 61 1011.8
20260503130504 46 293 3.0 10.0 0.00 0.00 0.00 60 1011.8